{"data":{"norad_id":50839,"epoch":"2026-05-24T20:37:40.064736Z","epoch_age_seconds":101250,"freshness":"FRESH","line1":"1 50839U 22001AN  26144.85949149  .00001536  00000+0  11459-3 0  9993","line2":"2 50839  53.2118 197.1806 0001227  87.9590 272.1542 15.08830015241752","mean_motion":15.08830015,"eccentricity":0.0001227,"inclination_deg":53.2118,"raan_deg":197.1806,"arg_perigee_deg":87.959,"mean_anomaly_deg":272.1542,"bstar":0.00011459,"rev_number":24175,"period_min":95.438186255859,"perigee_km":538.92508161428,"apogee_km":540.62273695142,"semimajor_km":6917.9109092829,"source":"CELESTRAK","updated_at":"2026-05-25T13:38:16.881237Z"}}